Year,Month,Day,Hour,Minute,Value (Times are PST for temperature in C)
2015,05,03,00,00,3.70
2015,05,03,00,01,3.70
2015,05,03,00,02,3.70
2015,05,03,00,03,3.70
2015,05,03,00,04,3.70
2015,05,03,00,05,3.70
2015,05,03,00,06,3.70
2015,05,03,00,07,3.70
2015,05,03,00,08,3.60
2015,05,03,00,09,3.60
2015,05,03,00,10,3.60
2015,05,03,00,11,3.60
2015,05,03,00,12,3.60
2015,05,03,00,13,3.60
2015,05,03,00,14,3.60
2015,05,03,00,15,3.60
2015,05,03,00,16,3.60
2015,05,03,00,17,3.50
2015,05,03,00,18,3.50
2015,05,03,00,19,3.50
2015,05,03,00,20,3.50
2015,05,03,00,21,3.50
2015,05,03,00,22,3.50
2015,05,03,00,23,3.40
2015,05,03,00,24,3.40
2015,05,03,00,25,3.40
2015,05,03,00,26,3.40
2015,05,03,00,27,3.40
2015,05,03,00,28,3.40
2015,05,03,00,29,3.40
2015,05,03,00,30,3.30
2015,05,03,00,31,3.30
2015,05,03,00,32,3.30
2015,05,03,00,33,3.30
2015,05,03,00,34,3.30
2015,05,03,00,35,3.30
2015,05,03,00,36,3.30
2015,05,03,00,37,3.30
2015,05,03,00,38,3.30
2015,05,03,00,39,3.30
2015,05,03,00,40,3.30
2015,05,03,00,41,3.20
2015,05,03,00,42,3.20
2015,05,03,00,43,3.20
2015,05,03,00,44,3.20
2015,05,03,00,45,3.20
2015,05,03,00,46,3.20
2015,05,03,00,47,3.20
2015,05,03,00,48,3.20
2015,05,03,00,49,3.10
2015,05,03,00,50,3.10
2015,05,03,00,51,3.10
2015,05,03,00,52,3.10
2015,05,03,00,53,3.10
2015,05,03,00,54,3.10
2015,05,03,00,55,3.00
2015,05,03,00,56,3.00
2015,05,03,00,57,3.00
2015,05,03,00,58,2.90
2015,05,03,00,59,2.90
2015,05,03,01,00,2.90
2015,05,03,01,01,2.90
2015,05,03,01,02,2.90
2015,05,03,01,03,2.90
2015,05,03,01,04,2.80
2015,05,03,01,05,2.80
2015,05,03,01,06,2.80
2015,05,03,01,07,2.80
2015,05,03,01,08,2.80
2015,05,03,01,09,2.80
2015,05,03,01,10,2.80
2015,05,03,01,11,2.70
2015,05,03,01,12,2.70
2015,05,03,01,13,2.70
2015,05,03,01,14,2.70
2015,05,03,01,15,2.70
2015,05,03,01,16,2.70
2015,05,03,01,17,2.70
2015,05,03,01,18,2.70
2015,05,03,01,19,2.70
2015,05,03,01,20,2.70
2015,05,03,01,21,2.70
2015,05,03,01,22,2.70
2015,05,03,01,23,2.60
2015,05,03,01,24,2.70
2015,05,03,01,25,2.60
2015,05,03,01,26,2.60
2015,05,03,01,27,2.60
2015,05,03,01,28,2.60
2015,05,03,01,29,2.60
2015,05,03,01,30,2.60
2015,05,03,01,31,2.60
2015,05,03,01,32,2.60
2015,05,03,01,33,2.60
2015,05,03,01,34,2.60
2015,05,03,01,35,2.60
2015,05,03,01,36,2.60
2015,05,03,01,37,2.60
2015,05,03,01,38,2.50
2015,05,03,01,39,2.50
2015,05,03,01,40,2.50
2015,05,03,01,41,2.50
2015,05,03,01,42,2.40
2015,05,03,01,43,2.40
2015,05,03,01,44,2.40
2015,05,03,01,45,2.40
2015,05,03,01,46,2.40
2015,05,03,01,47,2.40
2015,05,03,01,48,2.30
2015,05,03,01,49,2.30
2015,05,03,01,50,2.30
2015,05,03,01,51,2.30
2015,05,03,01,52,2.30
2015,05,03,01,53,2.30
2015,05,03,01,54,2.20
2015,05,03,01,55,2.20
2015,05,03,01,56,2.20
2015,05,03,01,57,2.20
2015,05,03,01,58,2.20
2015,05,03,01,59,2.20
2015,05,03,02,00,2.20
2015,05,03,02,01,2.20
2015,05,03,02,02,2.20
2015,05,03,02,03,2.20
2015,05,03,02,04,2.20
2015,05,03,02,05,2.20
2015,05,03,02,06,2.10
2015,05,03,02,07,2.10
2015,05,03,02,08,2.10
2015,05,03,02,09,2.10
2015,05,03,02,10,2.10
2015,05,03,02,11,2.10
2015,05,03,02,12,2.10
2015,05,03,02,13,2.10
2015,05,03,02,14,2.10
2015,05,03,02,15,2.10
2015,05,03,02,16,2.10
2015,05,03,02,17,2.10
2015,05,03,02,18,2.00
2015,05,03,02,19,2.00
2015,05,03,02,20,2.00
2015,05,03,02,21,2.00
2015,05,03,02,22,2.00
2015,05,03,02,23,2.00
2015,05,03,02,24,2.00
2015,05,03,02,25,2.00
2015,05,03,02,26,2.00
2015,05,03,02,27,2.00
2015,05,03,02,28,2.00
2015,05,03,02,29,2.00
2015,05,03,02,30,2.00
2015,05,03,02,31,2.00
2015,05,03,02,32,2.00
2015,05,03,02,33,2.00
2015,05,03,02,34,2.00
2015,05,03,02,35,2.00
2015,05,03,02,36,2.00
2015,05,03,02,37,2.00
2015,05,03,02,38,2.00
2015,05,03,02,39,2.00
2015,05,03,02,40,2.00
2015,05,03,02,41,2.00
2015,05,03,02,42,2.00
2015,05,03,02,43,2.00
2015,05,03,02,44,2.00
2015,05,03,02,45,2.00
2015,05,03,02,46,1.90
2015,05,03,02,47,1.90
2015,05,03,02,48,1.90
2015,05,03,02,49,1.90
2015,05,03,02,50,1.90
2015,05,03,02,51,1.90
2015,05,03,02,52,1.90
2015,05,03,02,53,1.90
2015,05,03,02,54,1.90
2015,05,03,02,55,1.90
2015,05,03,02,56,1.80
2015,05,03,02,57,1.80
2015,05,03,02,58,1.80
2015,05,03,02,59,1.80
2015,05,03,03,00,1.80
2015,05,03,03,01,1.80
2015,05,03,03,02,1.80
2015,05,03,03,03,1.80
2015,05,03,03,04,1.80
2015,05,03,03,05,1.80
2015,05,03,03,06,1.80
2015,05,03,03,07,1.80
2015,05,03,03,08,1.80
2015,05,03,03,09,1.80
2015,05,03,03,10,1.80
2015,05,03,03,11,1.80
2015,05,03,03,12,1.80
2015,05,03,03,13,1.80
2015,05,03,03,14,1.70
2015,05,03,03,15,1.70
2015,05,03,03,16,1.70
2015,05,03,03,17,1.70
2015,05,03,03,18,1.70
2015,05,03,03,19,1.70
2015,05,03,03,20,1.70
2015,05,03,03,21,1.70
2015,05,03,03,22,1.70
2015,05,03,03,23,1.70
2015,05,03,03,24,1.70
2015,05,03,03,25,1.70
2015,05,03,03,26,1.70
2015,05,03,03,27,1.70
2015,05,03,03,28,1.60
2015,05,03,03,29,1.60
2015,05,03,03,30,1.60
2015,05,03,03,31,1.60
2015,05,03,03,32,1.60
2015,05,03,03,33,1.60
2015,05,03,03,34,1.60
2015,05,03,03,35,1.60
2015,05,03,03,36,1.60
2015,05,03,03,37,1.60
2015,05,03,03,38,1.60
2015,05,03,03,39,1.60
2015,05,03,03,40,1.60
2015,05,03,03,41,1.60
2015,05,03,03,42,1.60
2015,05,03,03,43,1.60
2015,05,03,03,44,1.60
2015,05,03,03,45,1.60
2015,05,03,03,46,1.60
2015,05,03,03,47,1.60
2015,05,03,03,48,1.60
2015,05,03,03,49,1.60
2015,05,03,03,50,1.60
2015,05,03,03,51,1.60
2015,05,03,03,52,1.50
2015,05,03,03,53,1.50
2015,05,03,03,54,1.50
2015,05,03,03,55,1.50
2015,05,03,03,56,1.50
2015,05,03,03,57,1.50
2015,05,03,03,58,1.50
2015,05,03,03,59,1.50
2015,05,03,04,00,1.50
2015,05,03,04,01,1.50
2015,05,03,04,02,1.50
2015,05,03,04,03,1.50
2015,05,03,04,04,1.50
2015,05,03,04,05,1.50
2015,05,03,04,06,1.50
2015,05,03,04,07,1.50
2015,05,03,04,08,1.50
2015,05,03,04,09,1.50
2015,05,03,04,10,1.50
2015,05,03,04,11,1.40
2015,05,03,04,12,1.40
2015,05,03,04,13,1.50
2015,05,03,04,14,1.40
2015,05,03,04,15,1.40
2015,05,03,04,16,1.40
2015,05,03,04,17,1.40
2015,05,03,04,18,1.40
2015,05,03,04,19,1.40
2015,05,03,04,20,1.40
2015,05,03,04,21,1.40
2015,05,03,04,22,1.40
2015,05,03,04,23,1.40
2015,05,03,04,24,1.40
2015,05,03,04,25,1.40
2015,05,03,04,26,1.40
2015,05,03,04,27,1.40
2015,05,03,04,28,1.30
2015,05,03,04,29,1.30
2015,05,03,04,30,1.30
2015,05,03,04,31,1.30
2015,05,03,04,32,1.30
2015,05,03,04,33,1.30
2015,05,03,04,34,1.30
2015,05,03,04,35,1.30
2015,05,03,04,36,1.30
2015,05,03,04,37,1.30
2015,05,03,04,38,1.30
2015,05,03,04,39,1.30
2015,05,03,04,40,1.30
2015,05,03,04,41,1.30
2015,05,03,04,42,1.30
2015,05,03,04,43,1.30
2015,05,03,04,44,1.30
2015,05,03,04,45,1.30
2015,05,03,04,46,1.30
2015,05,03,04,47,1.30
2015,05,03,04,48,1.30
2015,05,03,04,49,1.30
2015,05,03,04,50,1.30
2015,05,03,04,51,1.30
2015,05,03,04,52,1.30
2015,05,03,04,53,1.30
2015,05,03,04,54,1.30
2015,05,03,04,55,1.30
2015,05,03,04,56,1.30
2015,05,03,04,57,1.30
2015,05,03,04,58,1.30
2015,05,03,04,59,1.30
2015,05,03,05,00,1.30
2015,05,03,05,01,1.30
2015,05,03,05,02,1.30
2015,05,03,05,03,1.30
2015,05,03,05,04,1.30
2015,05,03,05,05,1.30
2015,05,03,05,06,1.30
2015,05,03,05,07,1.30
2015,05,03,05,08,1.30
2015,05,03,05,09,1.30
2015,05,03,05,10,1.30
2015,05,03,05,11,1.30
2015,05,03,05,12,1.30
2015,05,03,05,13,1.20
2015,05,03,05,14,1.20
2015,05,03,05,15,1.20
2015,05,03,05,16,1.20
2015,05,03,05,17,1.20
2015,05,03,05,18,1.20
2015,05,03,05,19,1.20
2015,05,03,05,20,1.20
2015,05,03,05,21,1.20
2015,05,03,05,22,1.20
2015,05,03,05,23,1.20
2015,05,03,05,24,1.20
2015,05,03,05,25,1.20
2015,05,03,05,26,1.10
2015,05,03,05,27,1.10
2015,05,03,05,28,1.10
2015,05,03,05,29,1.10
2015,05,03,05,30,1.10
2015,05,03,05,31,1.20
2015,05,03,05,32,1.10
2015,05,03,05,33,1.10
2015,05,03,05,34,1.10
2015,05,03,05,35,1.10
2015,05,03,05,36,1.10
2015,05,03,05,37,1.10
2015,05,03,05,38,1.10
2015,05,03,05,39,1.10
2015,05,03,05,40,1.10
2015,05,03,05,41,1.10
2015,05,03,05,42,1.10
2015,05,03,05,43,1.10
2015,05,03,05,44,1.10
2015,05,03,05,45,1.10
2015,05,03,05,46,1.10
2015,05,03,05,47,1.00
2015,05,03,05,48,1.00
2015,05,03,05,49,1.00
2015,05,03,05,50,1.00
2015,05,03,05,51,1.00
2015,05,03,05,52,1.00
2015,05,03,05,53,1.00
2015,05,03,05,54,1.00
2015,05,03,05,55,1.00
2015,05,03,05,56,0.90
2015,05,03,05,57,0.90
2015,05,03,05,58,0.90
2015,05,03,05,59,0.90
2015,05,03,06,00,0.90
2015,05,03,06,01,0.90
2015,05,03,06,02,0.90
2015,05,03,06,03,0.90
2015,05,03,06,04,0.90
2015,05,03,06,05,0.90
2015,05,03,06,06,0.90
2015,05,03,06,07,0.90
2015,05,03,06,08,0.90
2015,05,03,06,09,0.90
2015,05,03,06,10,0.90
2015,05,03,06,11,0.90
2015,05,03,06,12,0.90
2015,05,03,06,13,0.90
2015,05,03,06,14,0.90
2015,05,03,06,15,1.00
2015,05,03,06,16,1.00
2015,05,03,06,17,1.00
2015,05,03,06,18,1.00
2015,05,03,06,19,1.00
2015,05,03,06,20,1.00
2015,05,03,06,21,1.00
2015,05,03,06,22,1.00
2015,05,03,06,23,1.00
2015,05,03,06,24,1.00
2015,05,03,06,25,1.10
2015,05,03,06,26,1.10
2015,05,03,06,27,1.10
2015,05,03,06,28,1.10
2015,05,03,06,29,1.10
2015,05,03,06,30,1.10
2015,05,03,06,31,1.10
2015,05,03,06,32,1.10
2015,05,03,06,33,1.10
2015,05,03,06,34,1.10
2015,05,03,06,35,1.10
2015,05,03,06,36,1.10
2015,05,03,06,37,1.10
2015,05,03,06,38,1.10
2015,05,03,06,39,1.10
2015,05,03,06,40,1.20
2015,05,03,06,41,1.20
2015,05,03,06,42,1.20
2015,05,03,06,43,1.20
2015,05,03,06,44,1.20
2015,05,03,06,45,1.20
2015,05,03,06,46,1.20
2015,05,03,06,47,1.20
2015,05,03,06,48,1.20
2015,05,03,06,49,1.20
2015,05,03,06,50,1.20
2015,05,03,06,51,1.30
2015,05,03,06,52,1.30
2015,05,03,06,53,1.30
2015,05,03,06,54,1.30
2015,05,03,06,55,1.30
2015,05,03,06,56,1.30
2015,05,03,06,57,1.30
2015,05,03,06,58,1.30
2015,05,03,06,59,1.30
2015,05,03,07,00,1.30
2015,05,03,07,01,1.30
2015,05,03,07,02,1.40
2015,05,03,07,03,1.40
2015,05,03,07,04,1.40
2015,05,03,07,05,1.50
2015,05,03,07,06,1.50
2015,05,03,07,07,1.50
2015,05,03,07,08,1.60
2015,05,03,07,09,1.60
2015,05,03,07,10,1.60
2015,05,03,07,11,1.60
2015,05,03,07,12,1.70
2015,05,03,07,13,1.70
2015,05,03,07,14,1.70
2015,05,03,07,15,1.70
2015,05,03,07,16,1.80
2015,05,03,07,17,1.80
2015,05,03,07,18,1.80
2015,05,03,07,19,1.80
2015,05,03,07,20,1.80
2015,05,03,07,21,1.90
2015,05,03,07,22,1.90
2015,05,03,07,23,1.90
2015,05,03,07,24,1.90
2015,05,03,07,25,2.00
2015,05,03,07,26,2.00
2015,05,03,07,27,2.10
2015,05,03,07,28,2.10
2015,05,03,07,29,2.20
2015,05,03,07,30,2.20
2015,05,03,07,31,2.20
2015,05,03,07,32,2.20
2015,05,03,07,33,2.30
2015,05,03,07,34,2.30
2015,05,03,07,35,2.40
2015,05,03,07,36,2.40
2015,05,03,07,37,2.40
2015,05,03,07,38,2.50
2015,05,03,07,39,2.50
2015,05,03,07,40,2.60
2015,05,03,07,41,2.60
2015,05,03,07,42,2.60
2015,05,03,07,43,2.70
2015,05,03,07,44,2.80
2015,05,03,07,45,2.80
2015,05,03,07,46,2.90
2015,05,03,07,47,3.00
2015,05,03,07,48,3.10
2015,05,03,07,49,3.20
2015,05,03,07,50,3.30
2015,05,03,07,51,3.40
2015,05,03,07,52,3.50
2015,05,03,07,53,3.70
2015,05,03,07,54,3.80
2015,05,03,07,55,3.90
2015,05,03,07,56,4.00
2015,05,03,07,57,4.20
2015,05,03,07,58,4.30
2015,05,03,07,59,4.40
2015,05,03,08,00,4.50
2015,05,03,08,01,4.70
2015,05,03,08,02,4.80
2015,05,03,08,03,4.90
2015,05,03,08,04,5.00
2015,05,03,08,05,5.10
2015,05,03,08,06,5.30
2015,05,03,08,07,5.40
2015,05,03,08,08,5.50
2015,05,03,08,09,5.70
2015,05,03,08,10,5.80
2015,05,03,08,11,5.90
2015,05,03,08,12,6.00
2015,05,03,08,13,6.10
2015,05,03,08,14,6.30
2015,05,03,08,15,6.40
2015,05,03,08,16,6.60
2015,05,03,08,17,6.70
2015,05,03,08,18,6.90
2015,05,03,08,19,7.10
2015,05,03,08,20,7.20
2015,05,03,08,21,7.40
2015,05,03,08,22,7.60
2015,05,03,08,23,7.80
2015,05,03,08,24,7.90
2015,05,03,08,25,8.10
2015,05,03,08,26,8.20
2015,05,03,08,27,8.40
2015,05,03,08,28,8.50
2015,05,03,08,29,8.70
2015,05,03,08,30,8.90
2015,05,03,08,31,9.00
2015,05,03,08,32,9.20
2015,05,03,08,33,9.40
2015,05,03,08,34,9.50
2015,05,03,08,35,9.70
2015,05,03,08,36,9.80
2015,05,03,08,37,10.00
2015,05,03,08,38,10.10
2015,05,03,08,39,10.30
2015,05,03,08,40,10.40
2015,05,03,08,41,10.50
2015,05,03,08,42,10.70
2015,05,03,08,43,10.80
2015,05,03,08,44,10.90
2015,05,03,08,45,11.00
2015,05,03,08,46,11.20
2015,05,03,08,47,11.20
2015,05,03,08,48,11.30
2015,05,03,08,49,11.30
2015,05,03,08,50,11.30
2015,05,03,08,51,11.30
2015,05,03,08,52,11.30
2015,05,03,08,53,11.40
2015,05,03,08,54,11.40
2015,05,03,08,55,11.40
2015,05,03,08,56,11.40
2015,05,03,08,57,11.50
2015,05,03,08,58,11.50
2015,05,03,08,59,11.60
2015,05,03,09,00,11.60
2015,05,03,09,01,11.60
2015,05,03,09,02,11.70
2015,05,03,09,03,11.70
2015,05,03,09,04,11.70
2015,05,03,09,05,11.70
2015,05,03,09,06,11.70
2015,05,03,09,07,11.70
2015,05,03,09,08,11.80
2015,05,03,09,09,11.90
2015,05,03,09,10,11.90
2015,05,03,09,11,12.00
2015,05,03,09,12,12.00
2015,05,03,09,13,12.00
2015,05,03,09,14,12.10
2015,05,03,09,15,12.10
2015,05,03,09,16,12.10
2015,05,03,09,17,12.20
2015,05,03,09,18,12.20
2015,05,03,09,19,12.20
2015,05,03,09,20,12.30
2015,05,03,09,21,12.30
2015,05,03,09,22,12.30
2015,05,03,09,23,12.30
2015,05,03,09,24,12.30
2015,05,03,09,25,12.30
2015,05,03,09,26,12.30
2015,05,03,09,27,12.30
2015,05,03,09,28,12.30
2015,05,03,09,29,12.30
2015,05,03,09,30,12.40
2015,05,03,09,31,12.40
2015,05,03,09,32,12.40
2015,05,03,09,33,12.40
2015,05,03,09,34,12.40
2015,05,03,09,35,12.30
2015,05,03,09,36,12.30
2015,05,03,09,37,12.30
2015,05,03,09,38,12.30
2015,05,03,09,39,12.30
2015,05,03,09,40,12.30
2015,05,03,09,41,12.40
2015,05,03,09,42,12.40
2015,05,03,09,43,12.50
2015,05,03,09,44,12.50
2015,05,03,09,45,12.50
2015,05,03,09,46,12.50
2015,05,03,09,47,12.50
2015,05,03,09,48,12.50
2015,05,03,09,49,12.40
2015,05,03,09,50,12.40
2015,05,03,09,51,12.40
2015,05,03,09,52,12.30
2015,05,03,09,53,12.30
2015,05,03,09,54,12.30
2015,05,03,09,55,12.30
2015,05,03,09,56,12.20
2015,05,03,09,57,12.20
2015,05,03,09,58,12.20
2015,05,03,09,59,12.20
2015,05,03,10,00,12.20
2015,05,03,10,01,12.30
2015,05,03,10,02,12.30
2015,05,03,10,03,12.30
2015,05,03,10,04,12.30
2015,05,03,10,05,12.30
2015,05,03,10,06,12.30
2015,05,03,10,07,12.30
2015,05,03,10,08,12.30
2015,05,03,10,09,12.40
2015,05,03,10,10,12.40
2015,05,03,10,11,12.50
2015,05,03,10,12,12.60
2015,05,03,10,13,12.60
2015,05,03,10,14,12.70
2015,05,03,10,15,12.80
2015,05,03,10,16,12.80
2015,05,03,10,17,12.90
2015,05,03,10,18,13.00
2015,05,03,10,19,13.00
2015,05,03,10,20,13.10
2015,05,03,10,21,13.10
2015,05,03,10,22,13.10
2015,05,03,10,23,13.20
2015,05,03,10,24,13.20
2015,05,03,10,25,13.30
2015,05,03,10,26,13.30
2015,05,03,10,27,13.30
2015,05,03,10,28,13.30
2015,05,03,10,29,13.30
2015,05,03,10,30,13.40
2015,05,03,10,31,13.40
2015,05,03,10,32,13.30
2015,05,03,10,33,13.20
2015,05,03,10,34,13.20
2015,05,03,10,35,13.20
2015,05,03,10,36,13.20
2015,05,03,10,37,13.10
2015,05,03,10,38,13.10
2015,05,03,10,39,13.20
2015,05,03,10,40,13.20
2015,05,03,10,41,13.30
2015,05,03,10,42,13.30
2015,05,03,10,43,13.30
2015,05,03,10,44,13.30
2015,05,03,10,45,13.20
2015,05,03,10,46,13.20
2015,05,03,10,47,13.20
2015,05,03,10,48,13.20
2015,05,03,10,49,13.20
2015,05,03,10,50,13.30
2015,05,03,10,51,13.30
2015,05,03,10,52,13.30
2015,05,03,10,53,13.30
2015,05,03,10,54,13.30
2015,05,03,10,55,13.30
2015,05,03,10,56,13.30
2015,05,03,10,57,13.30
2015,05,03,10,58,13.30
2015,05,03,10,59,13.30
2015,05,03,11,00,13.30
2015,05,03,11,01,13.30
2015,05,03,11,02,13.30
2015,05,03,11,03,13.30
2015,05,03,11,04,13.20
2015,05,03,11,05,13.20
2015,05,03,11,06,13.20
2015,05,03,11,07,13.30
2015,05,03,11,08,13.30
2015,05,03,11,09,13.40
2015,05,03,11,10,13.40
2015,05,03,11,11,13.40
2015,05,03,11,12,13.50
2015,05,03,11,13,13.50
2015,05,03,11,14,13.50
2015,05,03,11,15,13.50
2015,05,03,11,16,13.60
2015,05,03,11,17,13.60
2015,05,03,11,18,13.60
2015,05,03,11,19,13.50
2015,05,03,11,20,13.50
2015,05,03,11,21,13.50
2015,05,03,11,22,13.50
2015,05,03,11,23,13.60
2015,05,03,11,24,13.70
2015,05,03,11,25,13.80
2015,05,03,11,26,13.80
2015,05,03,11,27,13.90
2015,05,03,11,28,13.90
2015,05,03,11,29,13.90
2015,05,03,11,30,13.90
2015,05,03,11,31,14.00
2015,05,03,11,32,14.00
2015,05,03,11,33,14.00
2015,05,03,11,34,14.00
2015,05,03,11,35,14.00
2015,05,03,11,36,14.10
2015,05,03,11,37,14.20
2015,05,03,11,38,14.20
2015,05,03,11,39,14.20
2015,05,03,11,40,14.20
2015,05,03,11,41,14.20
2015,05,03,11,42,14.20
2015,05,03,11,43,14.20
2015,05,03,11,44,14.30
2015,05,03,11,45,14.30
2015,05,03,11,46,14.40
2015,05,03,11,47,14.40
2015,05,03,11,48,14.40
2015,05,03,11,49,14.30
2015,05,03,11,50,14.40
2015,05,03,11,51,14.40
2015,05,03,11,52,14.40
2015,05,03,11,53,14.50
2015,05,03,11,54,14.50
2015,05,03,11,55,14.60
2015,05,03,11,56,14.50
2015,05,03,11,57,14.50
2015,05,03,11,58,14.40
2015,05,03,11,59,14.50
2015,05,03,12,00,14.50
2015,05,03,12,01,14.40
2015,05,03,12,02,14.50
2015,05,03,12,03,14.50
2015,05,03,12,04,14.60
2015,05,03,12,05,14.70
2015,05,03,12,06,14.80
2015,05,03,12,07,14.90
2015,05,03,12,08,15.00
2015,05,03,12,09,15.00
2015,05,03,12,10,15.00
2015,05,03,12,11,15.00
2015,05,03,12,12,15.00
2015,05,03,12,13,15.00
2015,05,03,12,14,15.00
2015,05,03,12,15,15.00
2015,05,03,12,16,15.00
2015,05,03,12,17,15.00
2015,05,03,12,18,15.20
2015,05,03,12,19,15.30
2015,05,03,12,20,15.30
2015,05,03,12,21,15.30
2015,05,03,12,22,15.20
2015,05,03,12,23,15.20
2015,05,03,12,24,15.20
2015,05,03,12,25,15.20
2015,05,03,12,26,15.20
2015,05,03,12,27,15.20
2015,05,03,12,28,15.20
2015,05,03,12,29,15.20
2015,05,03,12,30,15.20
2015,05,03,12,31,15.20
2015,05,03,12,32,15.20
2015,05,03,12,33,15.30
2015,05,03,12,34,15.40
2015,05,03,12,35,15.50
2015,05,03,12,36,15.60
2015,05,03,12,37,15.60
2015,05,03,12,38,15.70
2015,05,03,12,39,15.80
2015,05,03,12,40,15.90
2015,05,03,12,41,15.90
2015,05,03,12,42,16.00
2015,05,03,12,43,16.00
2015,05,03,12,44,16.00
2015,05,03,12,45,16.10
2015,05,03,12,46,16.10
2015,05,03,12,47,16.20
2015,05,03,12,48,16.30
2015,05,03,12,49,16.30
2015,05,03,12,50,16.30
2015,05,03,12,51,16.30
2015,05,03,12,52,16.20
2015,05,03,12,53,16.10
2015,05,03,12,54,16.00
2015,05,03,12,55,16.00
2015,05,03,12,56,16.10
2015,05,03,12,57,16.20
2015,05,03,12,58,16.30
2015,05,03,12,59,16.30
2015,05,03,13,00,16.30
2015,05,03,13,01,16.30
2015,05,03,13,02,16.30
2015,05,03,13,03,16.30
2015,05,03,13,04,16.30
2015,05,03,13,05,16.30
2015,05,03,13,06,16.20
2015,05,03,13,07,16.20
2015,05,03,13,08,16.20
2015,05,03,13,09,16.20
2015,05,03,13,10,16.30
2015,05,03,13,11,16.30
2015,05,03,13,12,16.30
2015,05,03,13,13,16.40
2015,05,03,13,14,16.30
2015,05,03,13,15,16.30
2015,05,03,13,16,16.20
2015,05,03,13,17,16.10
2015,05,03,13,18,16.00
2015,05,03,13,19,15.90
2015,05,03,13,20,15.90
2015,05,03,13,21,15.90
2015,05,03,13,22,15.90
2015,05,03,13,23,15.90
2015,05,03,13,24,15.90
2015,05,03,13,25,15.80
2015,05,03,13,26,15.80
2015,05,03,13,27,15.80
2015,05,03,13,28,15.80
2015,05,03,13,29,15.80
2015,05,03,13,30,15.90
2015,05,03,13,31,15.90
2015,05,03,13,32,15.90
2015,05,03,13,33,16.00
2015,05,03,13,34,15.90
2015,05,03,13,35,15.80
2015,05,03,13,36,15.70
2015,05,03,13,37,15.60
2015,05,03,13,38,15.60
2015,05,03,13,39,15.60
2015,05,03,13,40,15.60
2015,05,03,13,41,15.60
2015,05,03,13,42,15.50
2015,05,03,13,43,15.50
2015,05,03,13,44,15.40
2015,05,03,13,45,15.50
2015,05,03,13,46,15.50
2015,05,03,13,47,15.60
2015,05,03,13,48,15.60
2015,05,03,13,49,15.70
2015,05,03,13,50,15.80
2015,05,03,13,51,16.00
2015,05,03,13,52,16.10
2015,05,03,13,53,16.20
2015,05,03,13,54,16.20
2015,05,03,13,55,16.30
2015,05,03,13,56,16.30
2015,05,03,13,57,16.30
2015,05,03,13,58,16.20
2015,05,03,13,59,16.20
2015,05,03,14,00,16.20
2015,05,03,14,01,16.20
2015,05,03,14,02,16.20
2015,05,03,14,03,16.30
2015,05,03,14,04,16.40
2015,05,03,14,05,16.50
2015,05,03,14,06,16.50
2015,05,03,14,07,16.60
2015,05,03,14,08,16.70
2015,05,03,14,09,16.70
2015,05,03,14,10,16.80
2015,05,03,14,11,16.90
2015,05,03,14,12,17.00
2015,05,03,14,13,17.10
2015,05,03,14,14,17.20
2015,05,03,14,15,17.20
2015,05,03,14,16,17.20
2015,05,03,14,17,17.20
2015,05,03,14,18,17.20
2015,05,03,14,19,17.10
2015,05,03,14,20,17.00
2015,05,03,14,21,17.00
2015,05,03,14,22,17.00
2015,05,03,14,23,17.00
2015,05,03,14,24,16.90
2015,05,03,14,25,16.90
2015,05,03,14,26,16.90
2015,05,03,14,27,16.90
2015,05,03,14,28,16.90
2015,05,03,14,29,16.90
2015,05,03,14,30,16.90
2015,05,03,14,31,16.90
2015,05,03,14,32,16.90
2015,05,03,14,33,17.00
2015,05,03,14,34,17.00
2015,05,03,14,35,17.10
2015,05,03,14,36,17.20
2015,05,03,14,37,17.40
2015,05,03,14,38,17.50
2015,05,03,14,39,17.60
2015,05,03,14,40,17.80
2015,05,03,14,41,18.00
2015,05,03,14,42,18.20
2015,05,03,14,43,18.30
2015,05,03,14,44,18.40
2015,05,03,14,45,18.50
2015,05,03,14,46,18.50
2015,05,03,14,47,18.40
2015,05,03,14,48,18.40
2015,05,03,14,49,18.40
2015,05,03,14,50,18.40
2015,05,03,14,51,18.30
2015,05,03,14,52,18.20
2015,05,03,14,53,18.10
2015,05,03,14,54,18.00
2015,05,03,14,55,18.00
2015,05,03,14,56,18.00
2015,05,03,14,57,18.10
2015,05,03,14,58,18.20
2015,05,03,14,59,18.20
2015,05,03,15,00,18.20
2015,05,03,15,01,18.20
2015,05,03,15,02,18.20
2015,05,03,15,03,18.20
2015,05,03,15,04,18.30
2015,05,03,15,05,18.30
2015,05,03,15,06,18.20
2015,05,03,15,07,18.20
2015,05,03,15,08,18.30
2015,05,03,15,09,18.30
2015,05,03,15,10,18.40
2015,05,03,15,11,18.40
2015,05,03,15,12,18.40
2015,05,03,15,13,18.30
2015,05,03,15,14,18.30
2015,05,03,15,15,18.30
2015,05,03,15,16,18.20
2015,05,03,15,17,18.10
2015,05,03,15,18,18.00
2015,05,03,15,19,17.90
2015,05,03,15,20,18.00
2015,05,03,15,21,18.00
2015,05,03,15,22,18.00
2015,05,03,15,23,17.90
2015,05,03,15,24,17.90
2015,05,03,15,25,17.90
2015,05,03,15,26,18.00
2015,05,03,15,27,18.00
2015,05,03,15,28,17.80
2015,05,03,15,29,17.80
2015,05,03,15,30,17.70
2015,05,03,15,31,17.60
2015,05,03,15,32,17.70
2015,05,03,15,33,17.70
2015,05,03,15,34,17.60
2015,05,03,15,35,17.60
2015,05,03,15,36,17.60
2015,05,03,15,37,17.60
2015,05,03,15,38,17.60
2015,05,03,15,39,17.60
2015,05,03,15,40,17.50
2015,05,03,15,41,17.50
2015,05,03,15,42,17.50
2015,05,03,15,43,17.40
2015,05,03,15,44,17.40
2015,05,03,15,45,17.40
2015,05,03,15,46,17.50
2015,05,03,15,47,17.40
2015,05,03,15,48,17.40
2015,05,03,15,49,17.30
2015,05,03,15,50,17.30
2015,05,03,15,51,17.30
2015,05,03,15,52,17.30
2015,05,03,15,53,17.30
2015,05,03,15,54,17.20
2015,05,03,15,55,17.10
2015,05,03,15,56,17.10
2015,05,03,15,57,17.10
2015,05,03,15,58,17.00
2015,05,03,15,59,17.00
2015,05,03,16,00,16.90
2015,05,03,16,01,17.00
2015,05,03,16,02,17.00
2015,05,03,16,03,17.00
2015,05,03,16,04,17.00
2015,05,03,16,05,16.90
2015,05,03,16,06,16.90
2015,05,03,16,07,16.90
2015,05,03,16,08,16.90
2015,05,03,16,09,16.90
2015,05,03,16,10,16.80
2015,05,03,16,11,16.80
2015,05,03,16,12,16.80
2015,05,03,16,13,16.80
2015,05,03,16,14,16.80
2015,05,03,16,15,16.80
2015,05,03,16,16,16.80
2015,05,03,16,17,16.70
2015,05,03,16,18,16.70
2015,05,03,16,19,16.70
2015,05,03,16,20,16.80
2015,05,03,16,21,16.80
2015,05,03,16,22,16.80
2015,05,03,16,23,16.90
2015,05,03,16,24,17.00
2015,05,03,16,25,17.00
2015,05,03,16,26,17.00
2015,05,03,16,27,17.00
2015,05,03,16,28,17.00
2015,05,03,16,29,17.00
2015,05,03,16,30,16.90
2015,05,03,16,31,16.90
2015,05,03,16,32,16.90
2015,05,03,16,33,16.90
2015,05,03,16,34,16.80
2015,05,03,16,35,16.80
2015,05,03,16,36,16.80
2015,05,03,16,37,16.80
2015,05,03,16,38,16.80
2015,05,03,16,39,16.70
2015,05,03,16,40,16.70
2015,05,03,16,41,16.70
2015,05,03,16,42,16.70
2015,05,03,16,43,16.70
2015,05,03,16,44,16.70
2015,05,03,16,45,16.70
2015,05,03,16,46,16.70
2015,05,03,16,47,16.70
2015,05,03,16,48,16.80
2015,05,03,16,49,16.80
2015,05,03,16,50,16.80
2015,05,03,16,51,16.80
2015,05,03,16,52,16.80
2015,05,03,16,53,16.80
2015,05,03,16,54,16.80
2015,05,03,16,55,16.80
2015,05,03,16,56,16.80
2015,05,03,16,57,16.70
2015,05,03,16,58,16.70
2015,05,03,16,59,16.70
2015,05,03,17,00,16.70
2015,05,03,17,01,16.70
2015,05,03,17,02,16.70
2015,05,03,17,03,16.70
2015,05,03,17,04,16.70
2015,05,03,17,05,16.70
2015,05,03,17,06,16.70
2015,05,03,17,07,16.70
2015,05,03,17,08,16.70
2015,05,03,17,09,16.70
2015,05,03,17,10,16.60
2015,05,03,17,11,16.60
2015,05,03,17,12,16.50
2015,05,03,17,13,16.50
2015,05,03,17,14,16.50
2015,05,03,17,15,16.50
2015,05,03,17,16,16.50
2015,05,03,17,17,16.50
2015,05,03,17,18,16.50
2015,05,03,17,19,16.50
2015,05,03,17,20,16.60
2015,05,03,17,21,16.60
2015,05,03,17,22,16.50
2015,05,03,17,23,16.50
2015,05,03,17,24,16.50
2015,05,03,17,25,16.50
2015,05,03,17,26,16.50
2015,05,03,17,27,16.50
2015,05,03,17,28,16.50
2015,05,03,17,29,16.50
2015,05,03,17,30,16.50
2015,05,03,17,31,16.60
2015,05,03,17,32,16.60
2015,05,03,17,33,16.60
2015,05,03,17,34,16.60
2015,05,03,17,35,16.60
2015,05,03,17,36,16.60
2015,05,03,17,37,16.60
2015,05,03,17,38,16.60
2015,05,03,17,39,16.60
2015,05,03,17,40,16.60
2015,05,03,17,41,16.60